Weather History for Lakeland Region, FL

Change the Weather History Date:

Sunday, April 27, 2014

  Actual Average Record
Temperature  
Mean Temperature 78 °F -  
Max Temperature 89 °F 81 °F 93 °F (2002)
Min Temperature 68 °F 62 °F 53 °F (1992)
Cooling Degree Days 14    
Growing Degree Days 28 (Base 50)    
Moisture  
Dew Point 64 °F    
Average Humidity 71    
Maximum Humidity 100    
Minimum Humidity 33    
Precipitation  
Precipitation 0.00 in - - ()
Sea Level Pressure  
Sea Level Pressure 29.99 in    
Wind  
Wind Speed 2 mph (South)    
Max Wind Speed 14 mph    
Max Gust Speed 23 mph    
Visibility 10 miles    
Events      
Averages and records for this station are not official NWS values.
T = Trace of Precipitation, MM = Missing Value Source: NWS Daily Summary

Daily Weather History Graph

Daily Weather History Graph

Search for Another Location

Airport:

Trip Planner

Search our weather history database for the weather conditions in past years. The results will help you decide how hot, cold, wet, or windy it might be!

Date:

Astronomy

Apr. 27, 2014 Rise Set
Actual Time 6:51 AM EDT 8:00 PM EDT
Civil Twilight 6:27 AM EDT 8:24 PM EDT
Nautical Twilight 5:57 AM EDT 8:53 PM EDT
Astronomical Twilight 5:27 AM EDT 9:24 PM EDT
Moon 5:41 AM EDT (4/27) 6:39 PM EDT (4/27)
Length of Visible Light 13h 57m
Length of Day
13h 08m
Waning Crescent, 3% of the Moon is Illuminated
Apr 27
Waning Crescent
Apr 29
New
May 6
First Quarter
May 14
Full
May 21
Last Quarter

Hourly Weather History & Observations

Time (EDT) Temp. Heat Index Dew Point Humidity Pressure Visibility Wind Dir Wind Speed Gust Speed Precip Events Conditions
12:15 AM 71.6 °F - 62.6 °F 73% 30.02 in 10.0 mi Calm Calm - N/A   Clear
12:35 AM 71.6 °F - 64.4 °F 78% 30.02 in 10.0 mi Calm Calm - N/A   Clear
12:55 AM 71.6 °F - 64.4 °F 78% 30.02 in 10.0 mi Calm Calm - N/A   Clear
1:15 AM 71.6 °F - 64.4 °F 78% 30.02 in 10.0 mi Calm Calm - N/A   Clear
1:35 AM 69.8 °F - 64.4 °F 83% 30.01 in 10.0 mi Calm Calm - N/A   Clear
1:55 AM 69.8 °F - 64.4 °F 83% 30.00 in 10.0 mi Calm Calm - N/A   Clear
2:15 AM 69.8 °F - 64.4 °F 83% 30.00 in 10.0 mi Calm Calm - N/A   Clear
2:35 AM 69.8 °F - 64.4 °F 83% 29.99 in 10.0 mi Calm Calm - N/A   Clear
2:55 AM 69.8 °F - 64.4 °F 83% 29.98 in 10.0 mi Calm Calm - N/A   Clear
3:15 AM 69.8 °F - 66.2 °F 88% 29.98 in 10.0 mi Calm Calm - N/A   Clear
3:35 AM 68.0 °F - 64.4 °F 88% 29.98 in 10.0 mi Calm Calm - N/A   Clear
3:55 AM 68.0 °F - 66.2 °F 94% 29.98 in 10.0 mi Calm Calm - N/A   Clear
4:15 AM 68.0 °F - 66.2 °F 94% 29.98 in 7.0 mi East 3.5 mph - N/A   Clear
4:35 AM 68.0 °F - 66.2 °F 94% 29.98 in 7.0 mi ESE 3.5 mph - N/A   Clear
4:55 AM 68.0 °F - 66.2 °F 94% 29.98 in 7.0 mi Calm Calm - N/A   Clear
5:15 AM 68.0 °F - 68.0 °F 100% 29.99 in 10.0 mi Calm Calm - N/A   Clear
5:35 AM 68.0 °F - 68.0 °F 100% 29.98 in 7.0 mi Calm Calm - N/A   Clear
5:50 AM 69.8 °F - 68.0 °F 94% 29.99 in 7.0 mi Calm Calm - N/A   Clear
6:50 AM 69.8 °F - 68.0 °F 94% 30.00 in 7.0 mi ESE 4.6 mph - N/A   Clear
7:50 AM 71.6 °F - 69.8 °F 94% 30.01 in 7.0 mi SE 5.8 mph - N/A   Clear
8:45 AM 75.2 °F - 69.8 °F 83% 30.02 in 10.0 mi SSE 5.8 mph - N/A   Clear
9:45 AM 78.8 °F - 66.2 °F 65% 30.03 in 10.0 mi SSE 9.2 mph - N/A   Clear
10:45 AM 82.4 °F 84.6 °F 66.2 °F 58% 30.02 in 10.0 mi SSE 6.9 mph - N/A   Clear
11:50 AM 84.2 °F 85.6 °F 64.4 °F 51% 30.03 in 10.0 mi South 11.5 mph - N/A   Partly Cloudy
12:45 PM 87.8 °F 88.5 °F 62.6 °F 43% 30.01 in 10.0 mi SSW 13.8 mph 23.0 mph N/A   Scattered Clouds
1:52 PM 89.6 °F 89.5 °F 60.8 °F 38% 29.99 in 12.0 mi South 6.9 mph - N/A   Mostly Cloudy
2:51 PM 87.8 °F 86.5 °F 57.2 °F 35% 29.97 in 15.0 mi SW 5.8 mph - N/A   Mostly Cloudy
3:54 PM 89.6 °F 88.1 °F 57.2 °F 33% 29.95 in 15.0 mi SSW 4.6 mph - N/A   Mostly Cloudy
4:54 PM 89.6 °F 88.1 °F 57.2 °F 33% 29.93 in 15.0 mi Calm Calm - N/A   Mostly Cloudy
5:54 PM 89.6 °F 89.5 °F 60.8 °F 38% 29.93 in 15.0 mi WSW 6.9 mph - N/A   Mostly Cloudy
6:54 PM 89.6 °F 89.5 °F 60.8 °F 38% 29.93 in 15.0 mi West 6.9 mph - N/A   Mostly Cloudy
7:50 PM 80.6 °F 81.5 °F 60.8 °F 51% 29.95 in 15.0 mi West 6.9 mph - N/A   Mostly Cloudy
8:56 PM 78.8 °F - 62.6 °F 57% 29.97 in 15.0 mi West 4.6 mph - N/A   Mostly Cloudy
9:51 PM 75.2 °F - 62.6 °F 65% 29.99 in 15.0 mi Variable 4.6 mph - N/A   Mostly Cloudy
10:15 PM 75.2 °F - 62.6 °F 65% 30.00 in 10.0 mi Calm Calm - N/A   Mostly Cloudy
10:35 PM 75.2 °F - 64.4 °F 69% 30.00 in 10.0 mi Calm Calm - N/A   Overcast
10:55 PM 75.2 °F - 62.6 °F 65% 30.00 in 10.0 mi Calm Calm - N/A   Overcast
11:15 PM 75.2 °F - 62.6 °F 65% 29.99 in 10.0 mi Calm Calm - N/A   Mostly Cloudy
11:35 PM 75.2 °F - 62.6 °F 65% 30.00 in 10.0 mi Calm Calm - N/A   Scattered Clouds
11:55 PM 73.4 °F - 64.4 °F 73% 30.00 in 10.0 mi Calm Calm - N/A   Scattered Clouds